User: anonymous   Login
Location: Fontevrault
(47.1823°N, 0.0493°E)
Time: 12:22:06
(UTC+00:00)
Language:

SL-16 R/B - Orbit

View from above orbital plane
View from above orbital plane
View from above satellite
View from above satellite

Ground track
Ground track

The orbit data is extracted from the following two-line orbital elements,

1 28353U 04021B   21265.64263614  .00000065  00000-0  58930-4 0  9996
2 28353  71.0002  49.9713 0005927 331.6404  28.4395 14.14251800892488
Epoch (UTC): 22 September 2021 15:25:23
Eccentricity: 0.0005927
inclination: 71.0002°
perigee height: 840 km
apogee height: 849 km
right ascension of ascending node: 49.9713°
argument of perigee: 331.6404°
revolutions per day: 14.14251800
mean anomaly at epoch: 28.4395°
orbit number at epoch: 89248

The dashed part of the orbit path shows where the satellite is in the earth's shadow,  

DLR